N8WJW Weather Reports


time (UTC)temp
F
wind
direction
speed
knots
gust
knots
rain 1hr
in
rain 24hr
in
rain mn
in
humidity
%
barometer
mb
20260510065955 47 154 0.0 2.6 0.00 0.01 0.01 99 1011.3
20260510065453 47 289 0.0 1.7 0.00 0.01 0.01 99 1011.2
20260510064949 48 98 0.9 1.7 0.00 0.01 0.01 99 1011.2
20260510064446 48 44 0.0 2.6 0.00 0.01 0.01 99 1011.3
20260510063942 48 61 0.0 1.7 0.00 0.01 0.01 99 1011.1
20260510063438 48 252 0.9 1.7 0.00 0.01 0.01 99 1011.0
20260510062936 48 52 0.0 1.7 0.00 0.01 0.01 99 1011.0
20260510062431 48 171 0.9 1.7 0.00 0.01 0.01 99 1011.2
20260510061927 48 150 0.0 2.6 0.00 0.01 0.01 99 1011.4
20260510061424 48 196 0.0 2.6 0.00 0.01 0.01 99 1011.1
20260510060920 48 26 0.0 1.7 0.00 0.01 0.01 99 1011.0
20260510060417 49 242 0.9 1.7 0.00 0.01 0.01 99 1011.0
20260510055913 49 212 0.0 1.7 0.00 0.01 0.01 99 1010.9
20260510055408 49 13 0.0 2.6 0.00 0.01 0.01 99 1010.6
20260510054906 50 246 1.7 4.3 0.00 0.01 0.01 99 1010.5
20260510054401 50 271 0.0 3.5 0.02 0.01 0.01 99 1010.2
20260510053856 51 124 2.6 6.1 0.02 0.01 0.01 99 1010.3
20260510053352 52 111 0.9 2.6 0.00 0.01 0.01 99 1010.5
20260510052849 52 34 0.0 1.7 0.02 0.01 0.01 99 1010.9
20260510052345 52 103 0.9 2.6 0.02 0.00 0.00 99 1010.8
20260510051841 53 267 1.7 2.6 0.02 0.00 0.00 99 1010.5
20260510051338 53 214 0.0 2.6 0.00 0.00 0.00 99 1010.4
20260510050835 53 332 0.0 1.7 0.00 0.00 0.00 99 1009.9
20260510050331 53 224 2.6 3.5 0.00 0.00 0.00 99 1009.8
20260510045829 52 37 0.0 1.7 0.00 0.00 0.00 99 1009.5
20260510045325 52 169 0.0 1.7 0.00 0.00 0.00 99 1009.4
20260510044822 52 341 0.0 0.9 0.00 0.00 0.00 99 1009.6
20260510044319 52 350 0.9 1.7 0.00 0.00 0.00 99 1009.3
20260510043816 52 49 0.0 1.7 0.00 0.00 0.00 99 1009.0
20260510043312 52 4 0.9 1.7 0.00 0.00 0.00 99 1008.9
20260510042809 52 60 0.9 1.7 0.00 0.00 0.00 99 1008.7
20260510042306 51 2 0.9 1.7 0.00 0.00 0.00 99 1008.8
20260510041801 51 139 0.0 1.7 0.00 0.00 0.00 99 1008.6
20260510041259 52 112 1.7 1.7 0.00 0.00 0.00 99 1008.6
20260510040757 52 44 0.0 1.7 0.00 0.00 0.00 99 1008.8
20260510040248 52 177 0.9 2.6 0.00 0.00 0.00 99 1008.5
20260510035743 52 160 0.0 1.7 0.00 0.26 0.26 99 1008.6
20260510035239 52 225 0.0 1.7 0.00 0.26 0.26 99 1008.6
20260510034735 52 89 0.0 1.7 0.00 0.26 0.26 99 1008.6
20260510034233 52 142 0.0 0.9 0.00 0.26 0.26 99 1008.8
20260510033729 52 71 0.0 2.6 0.00 0.26 0.26 99 1008.6
20260510033227 52 40 0.9 1.7 0.00 0.26 0.26 99 1008.8
20260510032722 52 131 0.0 1.7 0.00 0.26 0.26 99 1008.8
20260510032218 52 127 0.9 1.7 0.00 0.26 0.26 99 1008.7
20260510031713 52 51 0.9 1.7 0.00 0.26 0.26 99 1008.5
20260510031210 52 130 0.0 1.7 0.00 0.26 0.26 99 1008.5
20260510030704 52 199 0.0 2.6 0.00 0.26 0.26 99 1008.7
20260510030202 53 174 1.7 2.6 0.00 0.26 0.26 99 1008.7
20260510025659 53 201 2.6 5.2 0.00 0.26 0.26 99 1008.9
20260510025156 53 177 2.6 5.2 0.00 0.26 0.26 99 1009.1
20260510024653 52 209 2.6 3.5 0.00 0.26 0.26 99 1009.1
20260510024149 52 6 0.0 1.7 0.00 0.26 0.26 99 1008.3
20260510023645 52 33 0.0 1.7 0.00 0.26 0.26 99 1008.3
20260510023143 52 82 0.9 1.7 0.00 0.26 0.26 99 1008.3
20260510022642 52 89 0.0 0.9 0.00 0.26 0.26 99 1008.4
20260510022138 52 230 0.0 0.9 0.00 0.26 0.26 99 1008.3
20260510021634 52 126 0.0 1.7 0.00 0.26 0.26 99 1008.3
20260510021131 51 49 0.0 0.9 0.00 0.26 0.26 99 1008.4
20260510020626 51 110 0.0 1.7 0.00 0.26 0.26 99 1008.3
20260510020121 51 118 0.9 1.7 0.00 0.26 0.26 99 1008.6
20260510015617 52 65 0.9 1.7 0.00 0.26 0.26 99 1008.6
20260510015114 52 117 0.0 0.9 0.00 0.26 0.26 99 1008.4
20260510014609 52 304 0.0 0.0 0.00 0.26 0.26 99 1008.4
20260510014107 52 164 0.0 1.7 0.00 0.26 0.26 99 1008.4
20260510013601 52 32 0.0 0.9 0.00 0.26 0.26 99 1008.3
20260510013058 52 195 0.0 1.7 0.00 0.26 0.26 99 1008.0
20260510012551 52 167 1.7 1.7 0.00 0.26 0.26 99 1008.2
20260510012049 53 123 1.7 2.6 0.00 0.26 0.26 99 1008.1
20260510011548 52 117 0.0 0.9 0.00 0.26 0.26 99 1008.0
20260510011044 53 54 0.0 1.7 0.00 0.26 0.26 99 1007.9
20260510010541 53 28 0.0 0.9 0.00 0.26 0.26 99 1007.9
20260510010038 53 32 0.0 0.9 0.00 0.26 0.26 99 1007.8
20260510005533 53 341 0.0 0.9 0.00 0.26 0.26 99 1007.9
20260510005031 53 229 0.0 0.9 0.00 0.26 0.26 99 1008.0
20260510004529 54 191 0.9 2.6 0.00 0.26 0.26 99 1007.8
20260510004027 54 184 1.7 3.5 0.00 0.26 0.26 99 1007.5
20260510003523 54 184 1.7 4.3 0.00 0.26 0.26 99 1007.8
20260510003019 54 194 1.7 2.6 0.00 0.26 0.26 99 1007.9
20260510002514 54 168 1.7 3.5 0.00 0.26 0.26 99 1007.9
20260510002011 54 192 2.6 3.5 0.00 0.26 0.26 99 1007.7
20260510001509 54 179 2.6 3.5 0.00 0.26 0.26 99 1007.8
20260510001006 54 185 2.6 3.5 0.00 0.26 0.26 99 1007.9
20260510000501 54 254 3.5 4.3 0.00 0.26 0.26 99 1007.8
20260509235958 54 209 1.7 2.6 0.00 0.26 0.26 99 1007.8
20260509235455 54 178 1.7 5.2 0.00 0.26 0.26 99 1007.7
20260509234951 54 183 2.6 3.5 0.00 0.26 0.26 99 1007.9
20260509234448 54 216 2.6 2.6 0.00 0.26 0.26 99 1007.9
20260509233946 54 196 2.6 3.5 0.00 0.26 0.26 99 1007.7
20260509233443 54 206 1.7 4.3 0.00 0.26 0.26 99 1007.7
20260509232939 54 206 0.0 2.6 0.02 0.26 0.26 99 1007.4
20260509232438 54 54 1.7 2.6 0.05 0.26 0.26 98 1007.4
20260509231933 54 138 2.6 4.3 0.07 0.26 0.26 98 1007.1
20260509231430 54 227 1.7 7.8 0.12 0.26 0.26 98 1007.7
20260509230928 54 110 1.7 5.2 0.19 0.25 0.25 97 1007.9
20260509230424 54 141 1.7 6.1 0.69 0.23 0.23 96 1007.8
20260509225920 54 179 1.7 5.2 0.87 0.20 0.20 95 1007.8
20260509225417 55 249 0.9 14.8 0.45 0.11 0.11 92 1007.7
20260509224913 57 29 2.6 11.3 0.09 0.05 0.05 81 1007.2
20260509224408 62 26 1.7 9.6 0.00 0.03 0.03 71 1007.0
20260509223906 66 267 1.7 3.5 0.00 0.03 0.03 60 1005.9
20260509223403 67 175 2.6 5.2 0.00 0.03 0.03 59 1005.5
20260509222900 67 194 5.2 12.2 0.00 0.03 0.03 57 1005.5
20260509222354 67 193 4.3 7.8 0.00 0.03 0.03 58 1005.1
20260509221850 67 204 6.1 9.6 0.00 0.03 0.03 59 1005.1
20260509221347 67 189 3.5 8.7 0.00 0.03 0.03 58 1005.3
20260509220843 67 167 8.7 10.4 0.00 0.03 0.03 58 1005.2
20260509220339 67 239 7.8 10.4 0.00 0.03 0.03 57 1005.2
20260509215835 68 193 7.0 12.2 0.00 0.03 0.03 57 1005.3
20260509215332 68 200 4.3 9.6 0.00 0.03 0.03 59 1005.1
20260509214829 68 187 4.3 9.6 0.00 0.03 0.03 59 1004.9
20260509214326 68 178 6.1 13.0 0.00 0.03 0.03 60 1004.9
20260509213823 68 241 6.1 12.2 0.00 0.03 0.03 59 1004.8
20260509213318 68 165 4.3 7.8 0.00 0.03 0.03 60 1004.6
20260509212816 70 163 3.5 13.0 0.00 0.03 0.03 57 1004.7
20260509212314 70 215 5.2 7.8 0.00 0.03 0.03 56 1004.9
20260509211809 69 204 9.6 15.6 0.00 0.03 0.03 56 1004.9
20260509211305 69 198 7.0 13.9 0.00 0.03 0.03 58 1005.0
20260509210802 69 172 9.6 13.0 0.00 0.03 0.03 57 1005.3
20260509210300 70 200 3.5 9.6 0.00 0.03 0.03 57 1005.0
20260509205759 70 256 11.3 14.8 0.00 0.03 0.03 55 1005.2
20260509205254 70 185 5.2 11.3 0.00 0.03 0.03 57 1005.3
20260509204750 69 230 10.4 10.4 0.00 0.03 0.03 57 1005.4
20260509204247 68 195 5.2 9.6 0.00 0.03 0.03 58 1005.5
20260509203743 69 217 5.2 17.4 0.00 0.03 0.03 56 1005.8
20260509203241 68 190 5.2 7.0 0.00 0.03 0.03 59 1005.8
20260509202736 68 263 7.0 7.8 0.00 0.03 0.03 57 1005.7
20260509202232 68 199 5.2 7.8 0.00 0.03 0.03 59 1005.9
20260509201727 69 221 6.1 13.0 0.00 0.03 0.03 56 1005.9
20260509201224 69 202 5.2 8.7 0.00 0.03 0.03 58 1005.8
20260509200720 68 211 2.6 10.4 0.00 0.03 0.03 61 1005.8
20260509200215 67 180 5.2 12.2 0.00 0.03 0.03 61 1006.1
20260509195711 68 188 5.2 9.6 0.00 0.03 0.03 59 1006.1
20260509195206 68 223 4.3 12.2 0.00 0.03 0.03 60 1006.2
20260509194701 68 236 7.8 11.3 0.00 0.03 0.03 62 1006.2
20260509194158 68 214 4.3 9.6 0.00 0.03 0.03 63 1006.2
20260509193654 67 207 5.2 12.2 0.00 0.03 0.03 62 1006.4
20260509193150 67 212 8.7 12.2 0.00 0.03 0.03 61 1006.4
20260509192646 68 210 5.2 10.4 0.00 0.03 0.03 60 1006.5
20260509192141 68 202 2.6 14.8 0.00 0.03 0.03 59 1006.6
20260509191635 67 215 8.7 13.9 0.00 0.03 0.03 61 1006.8
20260509191132 68 201 13.0 13.0 0.00 0.03 0.03 62 1006.9
20260509190629 67 259 4.3 7.8 0.00 0.03 0.03 60 1006.8
20260509190126 66 257 8.7 8.7 0.00 0.03 0.03 62 1006.8
20260509185624 65 184 6.1 11.3 0.00 0.03 0.03 61 1007.1
20260509185120 66 186 7.0 8.7 0.00 0.03 0.03 62 1007.2
20260509184618 65 219 2.6 12.2 0.00 0.03 0.03 63 1007.1
20260509184115 66 191 3.5 7.8 0.00 0.03 0.03 64 1006.9
20260509183610 65 182 5.2 13.0 0.00 0.03 0.03 62 1007.0
20260509183106 68 216 7.8 12.2 0.00 0.03 0.03 60 1006.9
20260509182602 67 213 2.6 7.8 0.00 0.03 0.03 63 1006.8
20260509182059 66 250 8.7 9.6 0.00 0.03 0.03 62 1006.8
20260509181558 66 216 4.3 10.4 0.00 0.03 0.03 65 1006.8
20260509181055 66 225 7.8 8.7 0.00 0.03 0.03 68 1006.9
20260509180550 67 176 8.7 8.7 0.00 0.03 0.03 63 1007.0
20260509180048 66 258 3.5 8.7 0.00 0.03 0.03 66 1007.1
20260509175543 65 224 3.5 9.6 0.00 0.03 0.03 67 1007.1
20260509175041 65 219 7.8 11.3 0.00 0.03 0.03 67 1007.0
20260509174537 66 184 2.6 5.2 0.00 0.03 0.03 68 1007.1
20260509174032 65 256 7.0 7.8 0.00 0.03 0.03 69 1007.2
20260509173527 65 219 6.1 7.8 0.00 0.03 0.03 69 1007.0
20260509173023 65 104 3.5 7.0 0.00 0.03 0.03 69 1006.8
20260509172521 64 168 2.6 8.7 0.00 0.03 0.03 69 1006.8
20260509172016 64 205 4.3 6.1 0.00 0.03 0.03 68 1007.1
20260509171512 64 195 6.1 8.7 0.00 0.03 0.03 70 1007.2
20260509171009 63 159 3.5 7.8 0.00 0.03 0.03 70 1007.1
20260509170504 63 213 7.0 7.8 0.00 0.03 0.03 72 1007.2
20260509170001 64 243 3.5 8.7 0.00 0.03 0.03 70 1007.2
20260509165459 63 222 2.6 9.6 0.00 0.03 0.03 71 1007.1
20260509164955 63 180 2.6 8.7 0.00 0.03 0.03 71 1007.2
20260509164451 63 186 2.6 7.0 0.00 0.03 0.03 75 1007.1
20260509163947 63 223 1.7 6.1 0.00 0.03 0.03 71 1007.1
20260509163445 63 193 4.3 7.8 0.00 0.03 0.03 71 1007.4
20260509162944 62 175 5.2 7.0 0.00 0.03 0.03 74 1007.3
20260509162443 62 158 3.5 5.2 0.00 0.03 0.03 76 1007.9
20260509161938 61 235 3.5 7.0 0.00 0.03 0.03 78 1007.7
20260509161435 62 250 2.6 6.1 0.00 0.03 0.03 75 1007.9
20260509160930 62 168 0.9 5.2 0.00 0.03 0.03 78 1008.1
20260509160426 61 233 3.5 7.8 0.00 0.03 0.03 78 1008.2
20260509155921 59 126 2.6 9.6 0.00 0.03 0.03 81 1008.2
20260509155419 60 188 1.7 6.1 0.00 0.03 0.03 77 1008.1
20260509154915 61 208 3.5 6.1 0.00 0.03 0.03 77 1008.1
20260509154411 60 185 4.3 6.1 0.00 0.03 0.03 79 1008.2
20260509153908 58 148 0.9 7.8 0.00 0.03 0.03 80 1008.1
20260509153405 58 330 0.0 2.6 0.00 0.03 0.03 83 1008.2
20260509152902 58 198 2.6 6.1 0.00 0.03 0.03 82 1007.9
20260509152358 58 189 2.6 4.3 0.00 0.03 0.03 84 1007.7
20260509151856 58 190 4.3 7.8 0.00 0.03 0.03 84 1008.0
20260509151351 59 178 4.3 8.7 0.00 0.03 0.03 85 1007.9
20260509150850 59 223 2.6 4.3 0.00 0.03 0.03 86 1008.0
20260509150347 58 257 1.7 6.1 0.00 0.03 0.03 87 1008.1
20260509145844 58 180 3.5 4.3 0.00 0.03 0.03 88 1008.1
20260509145339 58 217 7.0 9.6 0.00 0.03 0.03 89 1008.1
20260509144836 57 177 3.5 5.2 0.00 0.03 0.03 90 1008.1
20260509144332 57 129 0.0 4.3 0.00 0.03 0.03 91 1008.2
20260509143830 58 218 2.6 4.3 0.00 0.03 0.03 91 1008.2
20260509143327 57 213 1.7 3.5 0.00 0.03 0.03 92 1008.0
20260509142823 56 211 3.5 6.1 0.00 0.03 0.03 93 1008.0
20260509142319 56 180 2.6 4.3 0.00 0.03 0.03 94 1008.1
20260509141815 56 191 3.5 7.0 0.00 0.03 0.03 94 1008.0
20260509141312 56 199 2.6 5.2 0.00 0.03 0.03 94 1008.1
20260509140809 55 195 3.5 4.3 0.00 0.03 0.03 95 1008.0
20260509140306 55 230 0.0 2.6 0.00 0.03 0.03 96 1008.0
20260509135804 55 151 3.5 4.3 0.00 0.03 0.03 96 1008.2
20260509135301 55 275 2.6 3.5 0.00 0.03 0.03 96 1008.1
20260509134758 55 173 1.7 3.5 0.00 0.03 0.03 97 1008.1
20260509134255 55 316 2.6 2.6 0.00 0.03 0.03 97 1008.3
20260509133752 54 214 2.6 4.3 0.00 0.03 0.03 97 1008.0
20260509133249 54 159 2.6 4.3 0.00 0.03 0.03 98 1008.1
20260509132748 54 193 1.7 3.5 0.00 0.03 0.03 99 1008.1
20260509132246 54 208 1.7 4.3 0.00 0.03 0.03 99 1008.1
20260509131742 53 184 1.7 4.3 0.00 0.03 0.03 99 1008.1
20260509131239 53 199 1.7 3.5 0.00 0.03 0.03 99 1007.9
20260509130735 53 208 2.6 4.3 0.00 0.03 0.03 99 1008.1
20260509130231 53 302 0.9 5.2 0.00 0.03 0.03 99 1008.1
20260509125728 53 213 1.7 2.6 0.00 0.03 0.03 99 1008.2
20260509125225 53 215 2.6 4.3 0.00 0.03 0.03 99 1008.2
20260509124721 53 188 4.3 7.8 0.00 0.03 0.03 99 1008.3
20260509124218 53 159 2.6 4.3 0.00 0.03 0.03 99 1008.2
20260509123716 52 198 1.7 2.6 0.00 0.03 0.03 99 1008.5
20260509123213 52 218 1.7 4.3 0.00 0.03 0.03 99 1008.3
20260509122708 52 189 2.6 4.3 0.00 0.03 0.03 99 1008.3
20260509122206 52 198 1.7 3.5 0.00 0.03 0.03 99 1008.4
20260509121702 52 213 2.6 3.5 0.00 0.03 0.03 99 1008.2
20260509121200 52 180 1.7 2.6 0.00 0.03 0.03 99 1008.6
20260509120658 52 227 2.6 4.3 0.00 0.03 0.03 99 1008.3
20260509120155 52 196 2.6 5.2 0.00 0.03 0.03 99 1008.4
20260509115653 52 179 0.9 5.2 0.00 0.03 0.03 99 1008.7
20260509115150 52 213 2.6 4.3 0.00 0.03 0.03 99 1008.4
20260509114648 52 172 2.6 4.3 0.00 0.03 0.03 99 1008.4
20260509114147 52 219 1.7 3.5 0.00 0.03 0.03 99 1008.5
20260509113645 51 212 2.6 3.5 0.00 0.03 0.03 99 1008.4
20260509113142 51 134 0.9 3.5 0.00 0.03 0.03 99 1008.5
20260509112638 51 245 0.0 2.6 0.00 0.03 0.03 99 1008.4
20260509112136 51 189 2.6 3.5 0.00 0.03 0.03 99 1008.4
20260509111632 51 223 3.5 3.5 0.00 0.03 0.03 99 1008.3
20260509111129 51 215 1.7 5.2 0.00 0.03 0.03 99 1008.2
20260509110626 51 211 2.6 3.5 0.00 0.03 0.03 99 1008.1
20260509110124 51 189 3.5 4.3 0.00 0.03 0.03 99 1008.2
20260509105622 51 199 1.7 2.6 0.00 0.03 0.03 99 1008.2
20260509105119 51 187 1.7 4.3 0.00 0.03 0.03 99 1008.3
20260509104616 51 186 1.7 2.6 0.00 0.03 0.03 99 1008.3
20260509104112 51 209 1.7 2.6 0.00 0.03 0.03 99 1008.2
20260509103610 51 113 0.0 2.6 0.00 0.03 0.03 99 1008.2
20260509103108 51 273 0.0 2.6 0.00 0.03 0.03 99 1008.3
20260509102605 51 190 2.6 3.5 0.00 0.03 0.03 99 1008.4
20260509102102 51 219 1.7 2.6 0.00 0.03 0.03 99 1008.2
20260509101558 51 161 2.6 3.5 0.00 0.03 0.03 99 1008.2
20260509101055 51 219 1.7 2.6 0.00 0.03 0.03 99 1008.2
20260509100552 51 243 1.7 3.5 0.00 0.03 0.03 99 1008.2
20260509100050 51 160 1.7 2.6 0.00 0.03 0.03 99 1008.3
20260509095546 51 214 1.7 2.6 0.00 0.03 0.03 99 1008.1
20260509095044 51 176 2.6 3.5 0.00 0.03 0.03 99 1008.2
20260509094540 51 196 0.0 2.6 0.00 0.03 0.03 99 1008.3
20260509094037 51 222 3.5 5.2 0.00 0.03 0.03 99 1008.4
20260509093536 51 187 2.6 3.5 0.00 0.03 0.03 99 1008.5
20260509093033 51 211 0.0 1.7 0.00 0.03 0.03 99 1008.4
20260509092530 51 176 2.6 2.6 0.00 0.03 0.03 99 1008.4
20260509092029 51 189 2.6 2.6 0.00 0.03 0.03 99 1008.5
20260509091526 51 188 2.6 2.6 0.00 0.03 0.03 99 1008.7
20260509091022 51 239 2.6 3.5 0.00 0.03 0.03 99 1008.7
20260509090520 51 217 1.7 2.6 0.00 0.03 0.03 99 1008.6
20260509090018 51 197 0.9 2.6 0.00 0.03 0.03 99 1008.7
20260509085514 51 194 1.7 2.6 0.00 0.03 0.03 99 1008.6
20260509085010 51 218 0.9 4.3 0.00 0.03 0.03 99 1008.8
20260509084508 51 214 1.7 3.5 0.00 0.03 0.03 99 1008.8
20260509084005 51 209 2.6 4.3 0.00 0.03 0.03 99 1008.9
20260509083502 51 235 0.9 4.3 0.00 0.03 0.03 99 1008.9
20260509082958 51 199 0.9 2.6 0.00 0.03 0.03 99 1009.0
20260509082456 51 243 2.6 4.3 0.00 0.03 0.03 99 1008.9
20260509081953 51 240 0.9 2.6 0.00 0.03 0.03 99 1008.8
20260509081450 51 192 0.9 2.6 0.00 0.03 0.03 99 1008.8
20260509080947 51 201 2.6 4.3 0.00 0.03 0.03 99 1008.8
20260509080445 51 210 2.6 5.2 0.00 0.03 0.03 99 1008.9
20260509075943 51 191 2.6 2.6 0.00 0.03 0.03 99 1008.8
20260509075439 51 172 1.7 3.5 0.00 0.03 0.03 99 1008.9
20260509074938 51 182 0.9 4.3 0.00 0.03 0.03 99 1008.9
20260509074435 51 198 2.6 3.5 0.00 0.03 0.03 99 1009.0
20260509073931 51 179 1.7 2.6 0.00 0.03 0.03 99 1009.0
20260509073427 51 240 0.9 1.7 0.00 0.03 0.03 99 1009.0
20260509072918 51 161 2.6 2.6 0.00 0.03 0.03 99 1009.1
20260509072415 51 213 2.6 3.5 0.00 0.03 0.03 99 1009.3
20260509071911 51 213 1.7 2.6 0.00 0.03 0.03 99 1009.2
20260509071409 51 204 0.9 4.3 0.00 0.03 0.03 99 1009.1
20260509070907 51 147 0.9 2.6 0.00 0.03 0.03 99 1009.1
20260509070403 51 203 1.7 2.6 0.00 0.03 0.03 99 1009.0